Location: Mahannah Oil Field
(37.4664°N, 96.6003°W)
Time: 14:45:06
(UTC+00:00)

Vanguard 2 Rocket - Pass Details

Date: 26 January 2021
Orbit: 554 x 3325 km, 32.9° (Epoch: 06 March)

Event Time Altitude Azimuth Distance (km) Brightness Sun altitude
Rises 22:03:06 0° 255° (WSW) 6,775 12.6 16.3°
Reaches altitude 10° 22:08:12 10° 253° (WSW) 5,414 12.4 15.5°
Maximum altitude 22:22:42 67° 175° (S) 1,867 8.9 13.3°
Drops below altitude 10° 22:30:43 10° 95° (E) 3,136 9.2 12.0°
Sets 22:32:54 0° 92° (E) 3,842 9.6 11.6°
